[[{"header":{"parameterUnit":"m.s-1","parameterCategory":1,"la1":30.2991,"la2":30.254,"lo1":-89.0895,"lo2":-89.0444,"dy":0.0017,"dx":0.0017,"nx":28,"ny":28,"refTime":"2024-04-27T09:00:00:Z","depth":0,"parameterNumber":2,"parameterNumberName":"U-component_of_WINDS"},"data":[0,0,0,0,0,0,0,0,0,0,0,0,0,0,0,0,0,0,0,0,0,0,0,0,0,0,0,0,0,0,0,0,0,0,0,0,0,0,0,0,0,0,0,0,0,0,0,0,0,0,0,0,0,0,0,0,0,0,-8.3511,-8.3513,0,-8.3663,-8.3665,-8.3667,-8.3617,-8.3614,-8.361,-8.3607,-8.3759,-8.3765,-8.3772,0,0,0,0,0,0,0,0,0,0,0,0,0,-8.3174,-8.318,-8.3511,-8.3513,-8.3515,-8.3663,-8.3665,-8.3667,-8.3617,-8.3613,-8.3609,-8.3606,-8.3756,-8.3765,-8.3773,0,0,0,0,0,0,0,0,0,0,0,0,0,-8.3322,-8.3182,-8.3511,-8.3508,-8.3509,-8.3663,-8.3665,-8.3668,-8.3618,-8.3613,-8.3608,-8.3604,-8.3753,-8.3764,-8.3774,-8.3938,0,0,-8.3807,-8.3811,0,0,0,0,0,0,0,0,-8.3314,-8.3335,-8.3507,-8.3509,-8.351,-8.3616,-8.3602,-8.3758,-8.362,-8.3577,-8.3607,-8.3601,-8.3715,-8.3728,-8.3767,-8.3945,-8.3952,-8.3808,-8.3814,-8.3819,-8.3822,0,0,0,0,0,0,0,-8.3304,-8.3328,-8.3571,-8.3509,-8.3511,-8.3498,-8.3514,-8.3631,-8.3671,-8.358,-8.3577,-8.3596,-8.3715,-8.3757,-8.3771,-8.3954,-8.3807,-8.3817,-8.3823,-8.3827,-8.4272,-8.4277,0,0,0,0,0,0,-8.3293,-8.332,-8.3566,-8.3576,-8.3398,-8.3508,-8.3526,-8.3587,-8.367,-8.3678,-8.36,-8.3593,-8.3742,-8.3758,-8.3776,-8.3971,-8.3819,-8.3828,-8.3835,-8.4267,-8.4273,-8.4279,0,0,0,0,0,0,-8.3286,-8.3316,-8.356,-8.3447,-8.3477,-8.3519,-8.3589,-8.3593,-8.3635,-8.3685,-8.3691,-8.3636,-8.3738,-8.3761,-8.3898,-8.3976,-8.3833,-8.3843,-8.426,-8.4269,-8.4276,-8.4364,0,0,0,0,0,0,-8.3277,-8.3313,-8.3377,-8.3449,-8.3484,-8.3681,-8.3593,-8.3599,-8.3654,-8.3646,-8.3721,-8.3728,-8.3736,-8.3883,-8.3909,-8.3988,-8.3851,-8.4254,-8.4264,-8.4274,-8.4354,-8.4374,-8.4391,0,0,0,0,0,-8.3265,-8.3394,-8.338,-8.341,-8.3564,-8.3686,-8.3705,-8.3713,-8.3661,-8.3724,-8.3756,-8.3726,-8.3964,-8.3897,-8.3926,-8.4009,-8.4249,-8.4261,-8.4273,-8.4346,-8.437,-8.4391,0,0,0,0,0,0,-8.3328,-8.3404,-8.3388,-8.3546,-8.361,-8.3677,-8.3757,-8.3739,-8.3818,-8.3807,-8.3813,-8.383,-8.3971,-8.4004,-8.3928,-8.4172,-8.4098,-8.4117,-8.4144,-8.4167,-8.4185,-8.4172,-8.386,0,0,0,0,0,-8.3361,-8.3455,-8.3516,-8.3649,-8.3682,-8.3714,-8.3768,-8.3769,-8.3835,-8.3861,-8.3903,-8.3967,-8.4056,-8.4114,-8.4199,-8.4361,-8.4375,-8.4433,-8.4451,-8.4466,-8.448,-8.4567,-8.4592,-8.432,-8.432,-8.4319,0,0,-8.3428,-8.3481,-8.354,-8.3663,-8.3712,-8.3808,-8.3737,-8.3841,-8.3912,-8.3876,-8.4007,-8.4042,-8.4113,-8.4263,-8.4331,-8.4295,-8.456,-8.4482,-8.4493,-8.4499,-8.4582,-8.4607,-8.463,-8.4328,-8.4326,-8.4325,0,0,-8.3599,-8.3651,-8.3766,-8.3818,-8.3895,-8.3916,-8.3944,-8.4015,-8.4036,-8.4169,-8.4144,-8.4228,-8.4382,-8.4434,-8.448,-8.4674,-8.4648,-8.4702,-8.4796,-8.488,-8.4901,-8.492,-8.4986,-8.501,-8.4717,-8.4717,-8.4717,0,-8.3672,-8.3817,-8.3827,-8.3934,-8.3988,-8.3963,-8.4079,-8.4128,-8.4229,-8.4266,-8.4226,-8.4418,-8.4465,-8.4625,-8.4673,-8.4713,-8.4743,-8.4691,-8.4898,-8.4917,-8.4935,-8.4998,-8.5023,-8.4723,-8.4722,-8.4722,-8.4721,0,-8.3902,-8.4003,-8.4087,-8.4185,-8.4249,-8.436,-8.4386,-8.445,-8.4446,-8.4471,-8.4607,-8.4663,-8.4758,-8.4797,-8.4794,-8.4958,-8.4933,-8.4896,-8.4821,-8.4966,-8.5025,-8.505,-8.4731,-8.4729,-8.4727,-8.4726,0,0,-8.4112,-8.4218,-8.4248,-8.4292,-8.4377,-8.4454,-8.4564,-8.4659,-8.4712,-8.4783,-8.4874,-8.5006,-8.4972,-8.5025,-8.5029,-8.5103,-8.525,-8.5056,-8.5058,-8.5087,-8.543,-8.5454,-8.5482,-8.5235,-8.524,-8.5244,-8.5423,0,-8.4288,-8.4481,-8.4495,-8.4669,-8.4761,-8.474,-8.4836,-8.4897,-8.4925,-8.5006,-8.5036,-8.5128,-8.5079,-8.511,-8.5183,-8.5216,-8.5318,-8.5204,-8.5316,-8.532,-8.5294,-8.5514,-8.554,-8.5705,-8.5446,-8.545,-8.5453,0,-8.4517,-8.4596,-8.478,-8.4851,-8.4891,-8.4976,-8.5064,-8.5143,-8.5212,-8.5227,-8.5288,-8.5281,-8.5392,-8.5318,-8.547,-8.5393,-8.544,-8.5464,-8.5471,-8.5477,-8.5392,-8.5523,-8.5759,-8.5782,-8.549,-8.5487,-8.5485,0,-8.4647,-8.4801,-8.493,-8.4969,-8.5057,-8.5117,-8.5156,-8.5221,-8.5277,-8.5355,-8.5391,-8.548,-8.5528,-8.5596,-8.5613,-8.5558,-8.5765,-8.5692,-8.5778,-8.5777,-8.5818,-8.5814,-8.6061,-8.5856,-8.5856,-8.5855,-8.5855,0,-8.4839,-8.4951,-8.499,-8.5069,-8.5194,-8.521,-8.5333,-8.5368,-8.5426,-8.5511,-8.55,-8.5579,-8.5599,-8.5682,-8.5697,-8.5819,-8.5842,-8.5855,-8.5857,-8.5854,-8.5851,-8.5881,-8.5868,-8.5862,-8.5861,-8.5859,-8.5858,0,-8.5004,-8.5035,-8.5174,-8.5247,-8.5268,-8.5357,-8.5418,-8.5493,-8.5521,-8.5628,-8.5654,-8.5696,-8.5793,-8.5819,-8.5935,-8.5945,-8.6088,-8.6081,-8.6065,-8.6063,-8.6146,-8.6136,-8.6417,-8.6453,-8.6228,-8.623,-8.6232,0,-8.5122,-8.5208,-8.5291,-8.5347,-8.5389,-8.5481,-8.5539,-8.5558,-8.5618,-8.5705,-8.5769,-8.5866,-8.5943,-8.61,-8.6139,-8.6228,-8.6221,-8.6313,-8.6233,-8.6227,-8.6217,-8.621,-8.6218,-8.6326,-8.6329,-8.6331,-8.6332,0,-8.5327,-8.5338,-8.5423,-8.5513,-8.5583,-8.5655,-8.5723,-8.577,-8.5799,-8.5867,-8.5967,-8.6028,-8.6148,-8.6242,-8.6332,-8.6371,-8.6356,-8.6358,-8.6382,-8.6377,-8.6362,-8.6368,-8.6101,-8.635,-8.6348,-8.6347,-8.6346,-8.6345,-8.5469,-8.5545,-8.5614,-8.5709,-8.5763,-8.5828,-8.5902,-8.594,-8.6024,-8.6123,-8.613,-8.6238,-8.6305,-8.6425,-8.6469,-8.6553,-8.6525,-8.656,-8.6569,-8.6576,-8.6581,-8.6353,-8.657,-8.657,-8.6569,-8.6569,-8.6569,0,-8.567,-8.5715,-8.5802,-8.5899,-8.5974,-8.5957,-8.6032,-8.6094,-8.619,-8.6255,-8.6333,-8.6447,-8.654,-8.6589,-8.668,-8.6738,-8.6733,-8.6761,-8.6755,-8.6763,-8.6603,-8.6571,-8.6763,-8.6763,-8.6763,-8.6763,-8.6763,-8.6763,-8.5783,-8.5909,-8.5929,-8.6081,-8.6125,-8.6232,-8.6276,-8.6335,-8.6387,-8.6516,-8.6594,-8.6626,-8.6684,-8.678,-8.6864,-8.6876,-8.6909,-8.6939,-8.6947,-8.6795,-8.6775,-8.6756,-8.6726,-8.6947,-8.6948,-8.71,-8.7102,-8.7103]},{"header":{"parameterUnit":"m.s-1","parameterCategory":1,"la1":30.2991,"la2":30.254,"lo1":-89.0895,"lo2":-89.0444,"dy":0.0017,"dx":0.0017,"nx":28,"ny":28,"refTime":"2024-04-27T09:00:00:Z","depth":0,"parameterNumber":3,"parameterNumberName":"V-component_of_WINDS"},"data":[0,0,0,0,0,0,0,0,0,0,0,0,0,0,0,0,0,0,0,0,0,0,0,0,0,0,0,0,0,0,0,0,0,0,0,0,0,0,0,0,0,0,0,0,0,0,0,0,0,0,0,0,0,0,0,0,0,0,4.544,4.544,0,4.5517,4.5518,4.5519,4.55,4.5498,4.5497,4.5495,4.557,4.5574,4.5577,0,0,0,0,0,0,0,0,0,0,0,0,0,4.5273,4.5276,4.544,4.5441,4.5442,4.5517,4.5518,4.5519,4.55,4.5498,4.5496,4.5495,4.5569,4.5573,4.5577,0,0,0,0,0,0,0,0,0,0,0,0,0,4.5347,4.5277,4.5439,4.5441,4.5442,4.5517,4.5518,4.5519,4.55,4.5498,4.5496,4.5494,4.5568,4.5573,4.5578,4.5654,0,0,4.5593,4.5596,0,0,0,0,0,0,0,0,4.5343,4.5353,4.544,4.5441,4.5442,4.5497,4.5487,4.5564,4.5501,4.5478,4.5495,4.5493,4.5547,4.5554,4.5573,4.5658,4.5661,4.5594,4.5597,4.5599,4.5601,0,0,0,0,0,0,0,4.5338,4.535,4.547,4.5441,4.5443,4.5437,4.5445,4.5501,4.5524,4.548,4.5479,4.5488,4.5547,4.5568,4.5575,4.5662,4.5594,4.5598,4.5601,4.5603,4.5815,4.5817,0,0,0,0,0,0,4.5332,4.5346,4.5468,4.5472,4.5386,4.5442,4.5451,4.5481,4.5524,4.5528,4.549,4.5487,4.5561,4.5569,4.5577,4.567,4.5599,4.5604,4.5607,4.5812,4.5815,4.5818,0,0,0,0,0,0,4.5328,4.5343,4.5464,4.5409,4.5424,4.5448,4.5481,4.5484,4.5505,4.5531,4.5535,4.5508,4.5559,4.557,4.5636,4.5673,4.5606,4.5611,4.5809,4.5813,4.5817,4.5856,0,0,0,0,0,0,4.5324,4.5342,4.5371,4.541,4.5427,4.5522,4.5484,4.5487,4.5514,4.5511,4.5549,4.5553,4.5558,4.5628,4.5641,4.5678,4.5615,4.5806,4.5811,4.5815,4.5852,4.5861,4.5869,0,0,0,0,0,4.5318,4.5378,4.5373,4.5388,4.5465,4.5525,4.5534,4.5541,4.5517,4.5547,4.5565,4.5551,4.5667,4.5635,4.5649,4.5689,4.5803,4.5809,4.5815,4.5848,4.5859,4.5869,0,0,0,0,0,0,4.5341,4.5383,4.5378,4.5452,4.5486,4.5521,4.5559,4.5553,4.5591,4.5587,4.5592,4.5601,4.5668,4.5685,4.5649,4.5766,4.5732,4.5741,4.5752,4.5763,4.5772,4.5765,4.5619,0,0,0,0,0,4.5356,4.5402,4.5436,4.5498,4.5515,4.5535,4.5561,4.5564,4.5597,4.561,4.5632,4.5665,4.5708,4.5737,4.5778,4.5855,4.5863,4.5889,4.5898,4.5905,4.5912,4.5955,4.5967,4.5837,4.5837,4.5837,0,0,4.5384,4.5413,4.5442,4.5504,4.5529,4.5577,4.5546,4.5597,4.5632,4.5618,4.5681,4.5699,4.5735,4.5808,4.584,4.5824,4.595,4.5912,4.5917,4.5921,4.5962,4.5974,4.5985,4.5841,4.584,4.5839,0,0,4.5462,4.5488,4.5544,4.5572,4.5612,4.5625,4.5639,4.5676,4.5688,4.5753,4.5744,4.5785,4.586,4.5887,4.591,4.6001,4.5991,4.6015,4.6059,4.6101,4.6111,4.612,4.6153,4.6165,4.6022,4.6022,4.6022,0,4.5492,4.5564,4.5573,4.5626,4.5654,4.5646,4.5702,4.5728,4.5779,4.5798,4.578,4.5875,4.5899,4.5978,4.6001,4.602,4.6035,4.601,4.6109,4.6118,4.6127,4.6158,4.6171,4.6025,4.6024,4.6024,4.6024,0,4.56,4.565,4.5691,4.5743,4.5775,4.583,4.5846,4.5878,4.5879,4.5894,4.596,4.5989,4.6037,4.6057,4.6057,4.6136,4.6125,4.6108,4.6073,4.6142,4.6171,4.6183,4.6029,4.6028,4.6027,4.6026,0,0,4.5691,4.5751,4.5765,4.579,4.5835,4.5874,4.5928,4.5978,4.6005,4.6041,4.6087,4.6152,4.6138,4.6164,4.6168,4.6205,4.6276,4.6184,4.6185,4.62,4.6366,4.6378,4.6392,4.627,4.6273,4.6275,4.6363,0,4.5773,4.587,4.5881,4.5968,4.6015,4.6009,4.6057,4.609,4.6106,4.6147,4.6164,4.6211,4.6188,4.6205,4.6241,4.626,4.6309,4.6254,4.6312,4.6314,4.6302,4.6407,4.642,4.6501,4.6374,4.6376,4.6378,0,4.588,4.5922,4.6014,4.6056,4.6076,4.6118,4.6165,4.6205,4.6243,4.6252,4.6284,4.6283,4.6339,4.6304,4.6381,4.6343,4.6368,4.6381,4.6385,4.6389,4.6349,4.6414,4.6528,4.654,4.6396,4.6395,4.6393,0,4.5938,4.6017,4.6083,4.6104,4.6154,4.6184,4.6206,4.6242,4.6272,4.6312,4.6332,4.6378,4.6403,4.6439,4.6451,4.6424,4.6528,4.6493,4.6536,4.6536,4.6557,4.6556,4.6676,4.6575,4.6574,4.6574,4.6574,0,4.6027,4.6083,4.611,4.6151,4.6214,4.6226,4.6289,4.6309,4.6341,4.6385,4.6383,4.6424,4.6438,4.6481,4.6491,4.6554,4.6565,4.6574,4.6575,4.6574,4.6572,4.6589,4.6583,4.6577,4.6577,4.6576,4.6575,0,4.6101,4.6122,4.6193,4.6236,4.6248,4.6293,4.6329,4.6368,4.6384,4.644,4.6454,4.6479,4.6531,4.6547,4.6608,4.6615,4.6688,4.6685,4.6676,4.6676,4.6718,4.6714,4.6852,4.6871,4.6758,4.6759,4.676,0,4.6157,4.62,4.6249,4.6279,4.6303,4.6351,4.6382,4.6397,4.6429,4.6477,4.651,4.6561,4.6603,4.6685,4.6708,4.6756,4.6753,4.6799,4.676,4.6758,4.6754,4.6751,4.6756,4.6805,4.6807,4.6808,4.6808,0,4.6253,4.6261,4.6307,4.6357,4.6395,4.6435,4.6473,4.6497,4.6517,4.6554,4.6607,4.664,4.6704,4.6755,4.6804,4.6825,4.682,4.6821,4.6833,4.6831,4.6824,4.6829,4.6695,4.6817,4.6816,4.6816,4.6815,4.6815,4.6319,4.6358,4.6399,4.6451,4.6482,4.6518,4.6558,4.6581,4.6626,4.668,4.6686,4.6744,4.6782,4.6847,4.6872,4.6917,4.6904,4.6922,4.6926,4.693,4.6934,4.6818,4.6926,4.6925,4.6925,4.6925,4.6925,0,4.6415,4.6442,4.6489,4.6544,4.6585,4.658,4.6622,4.6656,4.6708,4.6745,4.6787,4.6849,4.6899,4.6928,4.6978,4.7009,4.7008,4.7021,4.7019,4.7024,4.6942,4.6927,4.7021,4.7021,4.7021,4.7021,4.7021,4.7021,4.647,4.6537,4.6551,4.6633,4.6659,4.6717,4.6742,4.6776,4.6806,4.6876,4.6919,4.6938,4.6972,4.7025,4.7071,4.7078,4.7096,4.7111,4.7117,4.704,4.703,4.702,4.7005,4.7115,4.7115,4.7194,4.7195,4.7196]}]]